Location: Chervonnoye
(48.6000°N, 34.4000°E)
Time: 14:05:32
(UTC+00:00)

Cosmos 1151 Rocket - Pass Details

Date: 23 November 2020
Orbit: 593 x 615 km, 82.5° (Epoch: 28 January)

Event Time Altitude Azimuth Distance (km) Brightness Sun altitude
Rises 15:26:33 0° 160° (SSE) 2,842 6.4 -14.9°
Reaches altitude 10° 15:28:57 10° 150° (SSE) 1,941 5.4 -15.2°
Maximum altitude 15:32:40 29° 90° (E) 1,109 3.8 -15.8°
Enters shadow 15:32:54 29° 83° (E) 1,114 3.8 -15.9°
